Date String (YYYY-MM-DD hh:mm:ss) UTC,Instrument flags,Ambient pressure (hPa),Sample flow (lpm),Bypass flow (lpm),Sample temperature (°C),Ambient temperature (°C),ASC tube jacket temperature (°C),LED temperature (°C),Box temperature (°C),Sample RH (%),Span deviation,Mass concentration (μg/m³),Mass concentration (μg/m³),Mass concentration (μg/m³)
DateTimeUTC,F1_M11,P_M11,Q1_M11,Q2_M11,T1_M11,T2_M11,T3_M11,T4_M11,T5_M11,U1_M11,ZSPAN_M11,X0_M11,X2_M11,X1_M11
2022-02-11 19:00:00,,0827.7,5.00,0.00,21.4,20.7,00.0,30.6,23.0,14.1,0000.0,0007.80,0001.73,0001.17
2022-02-11 19:01:00,,0827.7,4.99,0.00,21.4,20.7,00.0,30.6,23.0,14.3,0000.0,0008.06,0001.79,0001.19
2022-02-11 19:02:00,,0827.8,5.01,0.00,21.3,20.6,00.0,30.5,22.9,14.6,0000.0,0008.43,0001.77,0001.21
2022-02-11 19:03:00,,0827.7,4.99,0.00,21.3,20.6,00.0,30.5,22.9,14.7,0000.0,0008.43,0001.74,0001.22
2022-02-11 19:04:00,,0827.7,4.99,0.00,21.3,20.6,00.0,30.5,22.8,14.9,0000.0,0008.47,0001.72,0001.23
2022-02-11 19:05:00,,0827.9,5.01,0.00,21.2,20.6,00.0,30.5,22.8,15.1,0000.0,0008.57,0001.76,0001.25
2022-02-11 19:06:00,,0827.8,4.99,0.00,21.2,20.5,00.0,30.4,22.8,15.2,0000.0,0008.62,0001.81,0001.26
2022-02-11 19:07:00,,0827.8,5.01,0.00,21.2,20.5,00.0,30.4,22.8,15.6,0000.0,0008.18,0001.87,0001.28
2022-02-11 19:08:00,,0827.8,4.98,0.00,21.2,20.4,00.0,30.4,22.8,16.0,0000.0,0007.81,0001.93,0001.32
2022-02-11 19:09:00,,0827.8,5.02,0.00,21.2,20.7,00.0,30.4,22.8,16.2,0000.0,0007.37,0002.01,0001.38
2022-02-11 19:10:00,,0827.8,4.98,0.00,21.3,21.6,00.0,30.4,23.1,16.2,0000.0,0007.75,0002.14,0001.44
2022-02-11 19:11:00,,0827.8,5.02,0.00,21.5,22.5,00.0,30.5,23.5,16.2,0000.0,0007.67,0002.22,0001.49
2022-02-11 19:12:00,,0827.8,5.00,0.00,21.6,22.7,00.0,30.5,23.6,16.3,0000.0,0007.88,0002.24,0001.52
2022-02-11 19:13:00,,0827.8,5.00,0.00,21.7,22.4,00.0,30.5,23.6,16.4,0000.0,0007.44,0002.22,0001.51
2022-02-11 19:14:00,,0827.8,4.99,0.00,21.7,22.1,00.0,30.5,23.5,16.3,0000.0,0007.44,0002.24,0001.49
2022-02-11 19:15:00,,0827.8,5.00,0.00,21.7,21.8,00.0,30.5,23.5,16.2,0000.0,0007.33,0002.22,0001.48
2022-02-11 19:16:00,,0827.8,5.00,0.00,21.6,21.6,00.0,30.6,23.4,16.1,0000.0,0007.34,0002.18,0001.43
2022-02-11 19:17:00,,0827.8,5.01,0.00,21.6,21.5,00.0,30.6,23.4,16.1,0000.0,0007.43,0002.11,0001.40
2022-02-11 19:18:00,,0827.8,5.00,0.00,21.6,21.3,00.0,30.6,23.3,16.2,0000.0,0007.24,0002.04,0001.36
2022-02-11 19:19:00,,0827.8,4.99,0.00,21.6,21.2,00.0,30.6,23.3,16.4,0000.0,0007.66,0001.91,0001.29
2022-02-11 19:20:00,,0827.8,5.01,0.00,21.6,21.1,00.0,30.6,23.3,16.4,0000.0,0007.55,0001.78,0001.20
2022-02-11 19:21:00,,0827.7,5.02,0.00,21.6,21.1,00.0,30.6,23.2,16.4,0000.0,0006.48,0001.64,0001.12
2022-02-11 19:22:00,,0827.7,4.99,0.00,21.5,21.0,00.0,30.6,23.2,16.5,0000.0,0005.45,0001.56,0001.05
2022-02-11 19:23:00,,0827.7,5.00,0.00,21.5,21.0,00.0,30.6,23.2,16.6,0000.0,0004.43,0001.41,0000.99
2022-02-11 19:24:00,,0827.8,5.00,0.00,21.5,21.0,00.0,30.6,23.2,16.6,0000.0,0004.34,0001.41,0000.94
2022-02-11 19:25:00,,0827.8,5.01,0.00,21.6,21.6,00.0,30.6,23.3,16.6,0000.0,0004.38,0001.39,0000.90
2022-02-11 19:26:00,,0827.7,4.99,0.00,21.7,22.5,00.0,30.7,23.7,16.5,0000.0,0004.64,0001.39,0000.86
2022-02-11 19:27:00,,0827.8,4.99,0.00,21.9,23.0,00.0,30.7,24.0,16.4,0000.0,0004.62,0001.34,0000.83
2022-02-11 19:28:00,,0827.8,5.00,0.00,22.0,22.8,00.0,30.7,24.0,16.3,0000.0,0004.40,0001.32,0000.81
2022-02-11 19:29:00,,0827.9,5.00,0.00,22.0,22.5,00.0,30.8,24.0,16.2,0000.0,0003.77,0001.24,0000.77
2022-02-11 19:30:00,,0827.9,5.01,0.00,22.0,22.2,00.0,30.8,23.9,16.2,0000.0,0002.66,0001.19,0000.75
2022-02-11 19:31:00,,0827.9,5.00,0.00,22.0,22.0,00.0,30.8,23.8,16.1,0000.0,0002.64,0001.17,0000.73
2022-02-11 19:32:00,,0827.9,4.99,0.00,22.0,21.9,00.0,30.8,23.8,16.2,0000.0,0002.58,0001.12,0000.70
2022-02-11 19:33:00,,0827.9,5.01,0.00,22.0,21.7,00.0,30.8,23.7,16.3,0000.0,0002.37,0001.06,0000.68
2022-02-11 19:34:00,,0827.8,4.99,0.00,21.9,21.6,00.0,30.8,23.7,16.4,0000.0,0002.36,0001.05,0000.66
2022-02-11 19:35:00,,0827.8,4.99,0.00,21.9,21.5,00.0,30.8,23.6,16.4,0000.0,0002.18,0000.99,0000.65
2022-02-11 19:36:00,,0827.8,5.02,0.00,21.9,21.4,00.0,30.8,23.6,16.5,0000.0,0002.07,0000.94,0000.64
2022-02-11 19:37:00,,0827.8,4.99,0.00,21.9,21.3,00.0,30.8,23.5,16.5,0000.0,0001.97,0000.88,0000.63
2022-02-11 19:38:00,,0827.8,4.99,0.00,21.8,21.3,00.0,30.8,23.5,16.4,0000.0,0001.84,0000.86,0000.63
2022-02-11 19:39:00,,0827.8,5.01,0.00,21.8,21.2,00.0,30.8,23.5,16.3,0000.0,0001.83,0000.84,0000.62
2022-02-11 19:40:00,,0827.8,4.98,0.00,21.7,21.1,00.0,30.8,23.4,16.2,0000.0,0001.99,0000.87,0000.62
2022-02-11 19:41:00,,0827.8,5.01,0.00,21.7,21.1,00.0,30.8,23.4,16.2,0000.0,0002.01,0000.87,0000.60
2022-02-11 19:42:00,,0827.7,4.99,0.00,21.7,21.2,00.0,30.8,23.4,16.2,0000.0,0002.19,0000.86,0000.59
2022-02-11 19:43:00,,0827.8,5.00,0.00,21.8,22.0,00.0,30.8,23.7,16.0,0000.0,0002.31,0000.86,0000.59
2022-02-11 19:44:00,,0827.8,4.99,0.00,22.0,22.9,00.0,30.9,24.0,15.9,0000.0,0002.36,0000.87,0000.58
2022-02-11 19:45:00,,0827.8,4.99,0.00,22.1,23.1,00.0,30.9,24.1,15.8,0000.0,0002.51,0000.90,0000.57
2022-02-11 19:46:00,,0827.8,5.00,0.00,22.1,22.7,00.0,31.0,24.1,15.8,0000.0,0002.62,0000.91,0000.55
2022-02-11 19:47:00,,0827.8,5.00,0.00,22.1,22.5,00.0,31.0,24.0,15.8,0000.0,0002.53,0000.87,0000.54
2022-02-11 19:48:00,,0827.8,5.00,0.00,22.1,22.2,00.0,31.0,23.9,15.8,0000.0,0002.28,0000.87,0000.53
2022-02-11 19:49:00,,0827.8,5.01,0.00,22.1,22.0,00.0,31.0,23.9,15.9,0000.0,0002.21,0000.87,0000.53
2022-02-11 19:50:00,,0827.8,5.00,0.00,22.0,21.8,00.0,31.0,23.8,15.9,0000.0,0002.23,0000.87,0000.52
2022-02-11 19:51:00,,0827.9,5.00,0.00,22.0,21.7,00.0,31.0,23.7,16.0,0000.0,0002.27,0000.91,0000.51
2022-02-11 19:52:00,,0827.9,5.01,0.00,22.0,21.6,00.0,31.0,23.7,16.0,0000.0,0002.32,0000.93,0000.52
2022-02-11 19:53:00,,0827.9,4.99,0.00,22.0,21.5,00.0,31.0,23.6,16.1,0000.0,0002.32,0000.95,0000.54
2022-02-11 19:54:00,,0827.9,5.02,0.00,21.9,21.4,00.0,31.0,23.6,16.2,0000.0,0002.07,0000.95,0000.54
2022-02-11 19:55:00,,0827.9,5.00,0.00,21.9,21.3,00.0,31.0,23.6,16.2,0000.0,0001.98,0000.92,0000.54
2022-02-11 19:56:00,,0827.8,4.99,0.00,21.9,21.3,00.0,30.9,23.5,16.2,0000.0,0001.94,0000.88,0000.54
2022-02-11 19:57:00,,0827.9,4.99,0.00,21.8,21.2,00.0,30.9,23.5,16.2,0000.0,0001.80,0000.85,0000.54
2022-02-11 19:58:00,,0827.8,5.02,0.00,21.8,21.1,00.0,30.9,23.4,16.3,0000.0,0001.86,0000.88,0000.54
2022-02-11 19:59:00,,0827.8,5.00,0.00,21.8,21.1,00.0,30.9,23.4,16.3,0000.0,0002.27,0000.88,0000.53
